FENGYUN 1C DEB, 36244

Orbit data source: Space-Track

FENGYUN 1C DEB, 36244 is space debris in SSO originally from a launch on Mon, 10 May 1999 UTC launched from the Taiyaun Space Center, China (TSC). Fengyun 1C debris stems from the Chinese weather satellite Fengyun-1C, which was intentionally destroyed by a Chinese anti-satellite missile in 2007. This event dramatically increased the amount of space debris, with thousands of trackable fragments posing hazards to satellites and human spaceflight. The Fengyun 1C debris cloud has become a focal point in discussions about space sustainability and the need for international regulations to prevent the creation of new debris.

Loading next visibility...
Identifier
36244, 1999-025DVV
Orbit
SSO
Country
Flag of CNCN / PRC
Related business
Manufacturer
Unknown
Mission
Spacecraft
Bus & Motor
Unknown
Mass
Unknown
Launch date (UTC)
1999-05-10 (27 years ago)
Launch vehicle
Unknown
Launch site
Taiyaun Space Center, China (TSC)
Object type
Payload
Rocket body
Debris
Shape & HBR
Unknown shape, 0.1 m
Radar Cross Section
Small (<0.1 m²)

Expand to show TLE details & history
Last TLE update: 1 week ago

TLE from 1 week ago
0 FENGYUN 1C DEB
1 36244U 99025DVV 26152.11842883  .00004402  00000-0  18272-2 0  9997
2 36244  98.9339 270.8400 0051563 153.2796 207.1057 14.26276976944061
Epoch: 2026-06-01T02:50Z
TLE epoch observation values (Epoch: 2026-06-01T02:50:32.250Z)
Latitude
-0.00004°
Longitude
-21.40471°
Altitude
840.131 km
Speed
7.416 km/s
True Right ascension
18h 03m 21s
True Declination
0° 00' 00"
Sunlit
Object was in full shadow at epoch
Visualization orbit readout
Latitude
Unknown
Longitude
Unknown
Altitude
Unknown
Speed
Unknown
Apparent Right ascension
Unknown
Apparent Declination
Unknown
Sunlit
N/A
Visualization observer readout
Local Sidereal Time
02:40:37
Azimuth
Unknown
Elevation
Unknown
Doppler factor
Unknown
Orbital elements
Apogee altitude
838.383 km
Perigee altitude
764.344 km
Semi-major axis
7,179.5 km
Eccentricity
0.00516
Inclination
98.9339°
RAAN
270.84°
Arg. of periapsis
153.2796°
True anomaly
206.83802°
Mean anomaly
207.1057°
Eccentric anomaly
206.97171°
Mean motion
3.56781 °/min
Orbital period
100.9 mins
BSTAR
0.0018272
Loading maneuver chart data...
Computing Atmospheric mass density...

Documentation

Showing up to 5 results
|